Location: Miami, Florida
(25.6830°N, 80.1700°W)
Time: 15:30:04
(UTC-04:00)

Tiangong 2 - Visible Passes

Search period start: 17 November 2017 00:00
Search period end: 27 November 2017 00:00
Orbit: 386 x 391 km, 42.8° (Epoch: 17 November)

Date Brightness Start Highest point End Pass type
(mag) Time Alt. Az. Time Alt. Az. Time Alt. Az.
17 Nov 4.3 19:19:43 10° WSW 19:21:28 14° SW 19:23:12 10° S visible
23 Nov 3.6 06:58:51 10° SSW 07:01:30 24° SE 07:04:10 10° E visible
24 Nov 4.4 06:02:28 10° SSE 06:03:29 11° SE 06:04:29 10° ESE visible
25 Nov 1.4 06:39:01 12° SW 06:41:50 65° SE 06:45:00 10° ENE visible
26 Nov 3.8 05:44:58 20° E 05:44:58 20° E 05:46:29 10° ENE visible
26 Nov 2.4 07:17:53 10° W 07:20:31 24° NNW 07:23:10 10° NNE visible
